Voltar ao catálogo

COSMOS 2251 DEB

AtivoLEO
NORAD 33984·DEBRIS·🇷🇺 Russia

Lançado Jun 16, 1993 de Plesetsk Cosmodrome

Loading…

Próximas Passagens (próximas 24 horas)

TLE

AtualizadoSource: Space-Track

Época: Sep 14, 2026, 11:10 UTC

1 33984U 93036FT  26257.46531398  .00002545  00000-0  44243-3 0  9995
2 33984  74.0084 173.6179 0023935 293.2476 188.1032 14.68525487931119

Acompanhe COSMOS 2251 DEB em tempo real com AllMySat

Download on the App Store